Regional Weather Roundup
Issued by NWS Newport/Morehead, NC

Current Version | Previous Version | Graphics & Text | Print | Product List | Glossary On
Versions: 1 2 3 4 5 6 7 8 9 10 11 12 13 14 15 16 17 18 19 20 21 22 23 24 25 26 27 28 29 30 31 32 33 34 35 36 37 38 39 40 41 42 43 44 45 46 47 48 49 50
000 ASUS42 KMHX 131913 RWRMHX WEATHER ROUNDUP FOR EASTERN NORTH CAROLINA NATIONAL WEATHER SERVICE NEWPORT/MOREHEAD CITY NC 200 PM EST WED DEC 13 2017 NOTE: "FAIR" INDICATES FEW OR NO CLOUDS BELOW 12,000 FEET WITH NO SIGNIFICANT WEATHER AND/OR OBSTRUCTIONS TO VISIBILITY NCZ015>017-031-032-045>047-102-103-132000- NORTH COAST CITY SKY/WX TMP DP RH WIND PRES REMARKS EDENTON SUNNY 40 8 26 W9G16 29.89S ELIZABETH CITY SUNNY 39 12 33 W18G25 29.87F KITTY HAWK CLEAR 36 13 39 W12G20 29.85F MANTEO SUNNY 37 14 39 NW13G22 29.88S $$ NCZ045>047-081-094-103-104-132000- CENTRAL COAST CITY SKY/WX TMP DP RH WIND PRES REMARKS FRISCO SUNNY 39 16 39 W10G18 29.89F $$ NCZ095-097-098-100-101-132000- SOUTHERN COAST CITY SKY/WX TMP DP RH WIND PRES REMARKS BEAUFORT SUNNY 44 11 26 W16G23 29.91F CEDAR ISLAND NOT AVBL JACKSONVILLE SUNNY 43 11 27 W13G21 29.92F PINEY ISLAND N/A N/A N/A N/A W13 29.90F WILMINGTON SUNNY 47 12 24 W10 29.94F $$ NCZ011>013-027>030-043-044-078>080-089-090>093-098-132000- COASTAL PLAIN CITY SKY/WX TMP DP RH WIND PRES REMARKS AHOSKIE SUNNY 37 6 28 NW6 29.87F CLINTON SUNNY 44 13 29 W7 29.94F ELIZABETHTOWN NOT AVBL GOLDSBORO SUNNY 43 8 23 W16 29.90F GREENVILLE SUNNY 39 7 26 W6G16 29.93F HAVELOCK SUNNY 43 11 27 W17G23 29.92F KENANSVILLE SUNNY 43 9 24 W7 29.93F KINSTON SUNNY 43 7 22 W7 29.92F NEW BERN SUNNY 42 13 30 W12 29.92F RICHLANDS SUNNY 44 12 27 W9 29.92F ROCKY MOUNT SUNNY 39 9 29 W13G20 29.90F WASHINGTON SUNNY 40 8 26 W10 29.91S WHITEVILLE SUNNY 45 13 27 W7 29.94F $$ AMZ130-135-150-152-154-156-158-170-250-252-270-ANZ085-086-088-633-658-670-132000- MARINE OBSERVATIONS STATION/POSITION TIME TEMP WIND PRES WAVE SWELL AIR SEA DIR/SP/G HT/PER HT/PER (UTC) (F) (DEG/KT/KT) (MB) (FT/S) (FT/S) CHESAPEAKE LIGHT NOT AVBL 64 E VA BEACH 1850 35 58 280/ 21/ 29 1010.5 8/ 7 DUCK 1836 35 53 300/ 16/ 20 1010.7 2 E DUCK 1900 56 N/A 4/ 5 OREGON INLET 1836 35 44 290/ 12/ 17 1011.4 13E OREGON INLT 1848 57 N/A 6/ 7 3/ 8 HATTERAS CG 1836 37 49 280/ 15/ 19 1011.7 DIAMOND BUOY 1900 40 75 290/ 17/ 25 1012.3 CAPE LOOKOUT 1800 290/ 13/ 16 1013.6 BEAUFORT LAB 1836 41 49 290/ 9/ 14 1012.8 30 SE NEW RVR IN 1808 43 62 320/ 14/ 19 1013.9 30 SE NEW RVR IN 1900 63 N/A 5/ 5 27 SE WRIGHTSVLE 1808 43 65 290/ 14/ 21 1014.1 5 SE WRIGHTSVLE 1808 43 57 310/ 12/ 17 1014.1 225 S CAPE HAT 1850 56 75 310/ 16/ 23 1013.1 12/10 11/10 41 SE CHARLESTON 1850 74 280/ 6/ 12 1015.5 3/ 5 3/ 5 $$

USA.gov is the U.S. government's official web portal to all federal, state and local government web resources and services.